This is the latest recevied weather packets stored in our database for station/object SP9TKN-1. If no packets are shown the sender has not sent any weather packets the latest 10 day(s).
| Time | Temp. | Humidity | Pressure | Rain* | Wind** | Luminosity | Snow |
|---|---|---|---|---|---|---|---|
| 1778065276 | 22.22° C | 39% | 1007.9 hPa | - | - | - | - |
| 1778064376 | 22.78° C | 38% | 1008 hPa | - | - | - | - |
| 1778063476 | 22.78° C | 38% | 1008.2 hPa | - | - | - | - |
| 1778062576 | 22.22° C | 39% | 1008.1 hPa | - | - | - | - |
| 1778061675 | 21.67° C | 40% | 1008.1 hPa | - | - | - | - |
| 1778060775 | 22.22° C | 40% | 1008.1 hPa | - | - | - | - |
| 1778059875 | 22.22° C | 39% | 1007.9 hPa | - | - | - | - |
| 1778058975 | 21.67° C | 40% | 1007.8 hPa | - | - | - | - |
| 1778058077 | 20.56° C | 43% | 1007.8 hPa | - | - | - | - |
| 1778057175 | 20.56° C | 45% | 1007.7 hPa | - | - | - | - |
| 1778056275 | 20° C | 45% | 1007.6 hPa | - | - | - | - |
| 1778055375 | 19.44° C | 46% | 1007.5 hPa | - | - | - | - |
| 1778054476 | 19.44° C | 47% | 1007.6 hPa | - | - | - | - |
| 1778053576 | 18.89° C | 48% | 1007.6 hPa | - | - | - | - |
| 1778052676 | 18.33° C | 49% | 1007.6 hPa | - | - | - | - |
| 1778051776 | 18.33° C | 50% | 1007.5 hPa | - | - | - | - |
| 1778050876 | 17.78° C | 51% | 1007.6 hPa | - | - | - | - |
| 1778049976 | 17.22° C | 52% | 1007.6 hPa | - | - | - | - |
| 1778049076 | 16.67° C | 53% | 1007.5 hPa | - | - | - | - |
| 1778048175 | 16.67° C | 53% | 1007.4 hPa | - | - | - | - |
| 1778047275 | 16.11° C | 54% | 1007.2 hPa | - | - | - | - |
| 1778046375 | 15.56° C | 55% | 1007.2 hPa | - | - | - | - |
| 1778045475 | 15.56° C | 55% | 1007.3 hPa | - | - | - | - |
| 1778044575 | 15.56° C | 55% | 1007.2 hPa | - | - | - | - |
| 1778043675 | 15° C | 55% | 1007 hPa | - | - | - | - |
* Rain since midnight (hover to see other rain measurements)
** Current wind speed in m/s (hover to see current wind gust speed)